[[{"header":{"parameterUnit":"m.s-1","parameterCategory":1,"la1":30.2991,"la2":30.254,"lo1":-89.0895,"lo2":-89.0444,"dy":0.0017,"dx":0.0017,"nx":28,"ny":28,"refTime":"2025-03-05T03:00:00:Z","depth":0,"parameterNumber":2,"parameterNumberName":"U-component_of_WINDS"},"data":[0,0,0,0,0,0,0,0,0,0,0,0,0,0,0,0,0,0,0,0,0,0,0,0,0,0,0,0,0,0,0,0,0,0,0,0,0,0,0,0,0,0,0,0,0,0,0,0,0,0,0,0,0,0,0,0,0,0,3.6695,3.6696,0,3.6789,3.6791,3.6792,3.6743,3.674,3.6738,3.6735,3.6833,3.6838,3.6843,0,0,0,0,0,0,0,0,0,0,0,0,0,3.6475,3.6479,3.6695,3.6696,3.6698,3.6789,3.6791,3.6792,3.6743,3.674,3.6737,3.6734,3.6831,3.6837,3.6843,0,0,0,0,0,0,0,0,0,0,0,0,0,3.657,3.6481,3.6695,3.6684,3.6684,3.6789,3.6791,3.6792,3.6744,3.674,3.6736,3.6733,3.6829,3.6837,3.6844,3.6965,0,0,3.6867,3.687,0,0,0,0,0,0,0,0,3.6565,3.6578,3.6685,3.6685,3.6685,3.675,3.6749,3.685,3.6745,3.6721,3.6735,3.6731,3.6809,3.6818,3.6844,3.697,3.6974,3.6867,3.6872,3.6875,3.6877,0,0,0,0,0,0,0,3.6558,3.6574,3.6732,3.6686,3.6687,3.6676,3.6685,3.6768,3.6785,3.6723,3.672,3.6732,3.6808,3.6837,3.6845,3.6975,3.6867,3.6874,3.6878,3.6881,3.7207,3.7211,0,0,0,0,0,0,3.6552,3.6569,3.6729,3.6735,3.6615,3.6683,3.6693,3.6733,3.6784,3.6788,3.6735,3.6729,3.6826,3.6837,3.6849,3.6995,3.6875,3.6882,3.6886,3.7203,3.7208,3.7212,0,0,0,0,0,0,3.6548,3.6567,3.6726,3.6651,3.6671,3.669,3.6736,3.6737,3.6765,3.6793,3.6796,3.676,3.6823,3.6838,3.6937,3.6997,3.6885,3.6892,3.7198,3.7204,3.721,3.7287,0,0,0,0,0,0,3.6541,3.6566,3.6611,3.6653,3.6675,3.6812,3.674,3.6742,3.6778,3.6772,3.6818,3.6822,3.6821,3.6926,3.6944,3.7006,3.6898,3.7192,3.7201,3.7208,3.7279,3.7295,3.7309,0,0,0,0,0,3.6534,3.6629,3.6614,3.6633,3.6732,3.6815,3.6828,3.6826,3.6783,3.683,3.6848,3.682,3.6988,3.6936,3.6956,3.7021,3.7189,3.7198,3.7207,3.7273,3.7292,3.7309,0,0,0,0,0,0,3.6594,3.6634,3.6618,3.6729,3.6769,3.6807,3.6865,3.6846,3.6899,3.6891,3.6886,3.6897,3.6999,3.702,3.6962,3.7142,3.7082,3.7096,3.7124,3.7143,3.7158,3.7151,3.6904,0,0,0,0,0,3.662,3.6684,3.6716,3.6811,3.6832,3.6846,3.6882,3.6876,3.6918,3.6935,3.6959,3.7001,3.7063,3.7104,3.7163,3.7282,3.7292,3.7337,3.7351,3.7363,3.7376,3.7442,3.7462,3.7243,3.7243,3.7243,0,0,3.6675,3.6705,3.6746,3.6824,3.6854,3.6921,3.686,3.6933,3.6983,3.6946,3.704,3.706,3.7107,3.7216,3.7266,3.7237,3.7438,3.7376,3.7385,3.7391,3.7454,3.7474,3.7493,3.725,3.7249,3.7248,0,0,3.681,3.6838,3.6921,3.6953,3.7,3.7009,3.7029,3.707,3.7082,3.7177,3.7151,3.721,3.7317,3.7352,3.7383,3.7532,3.751,3.7552,3.763,3.7694,3.7711,3.7726,3.7781,3.78,3.7564,3.7564,3.7564,0,3.6872,3.6971,3.6966,3.7042,3.7078,3.7047,3.7132,3.7164,3.7228,3.7253,3.722,3.7354,3.7383,3.7501,3.7538,3.7564,3.7588,3.7546,3.7709,3.7724,3.7738,3.779,3.781,3.7569,3.7568,3.7568,3.7567,0,3.7046,3.7115,3.7177,3.724,3.7282,3.7362,3.737,3.7415,3.7406,3.7419,3.7516,3.755,3.7616,3.7643,3.7636,3.7761,3.7742,3.7709,3.7649,3.7764,3.7813,3.7832,3.7576,3.7574,3.7573,3.7571,0,0,3.722,3.728,3.7303,3.7332,3.7382,3.7436,3.7515,3.7579,3.7617,3.7663,3.773,3.7822,3.7792,3.7828,3.7824,3.788,3.7998,3.7841,3.7842,3.7869,3.814,3.8165,3.8188,3.7983,3.7987,3.799,3.8136,0,3.7359,3.7496,3.7495,3.7623,3.7688,3.7661,3.773,3.7769,3.7783,3.784,3.7856,3.7922,3.7877,3.7899,3.7953,3.7972,3.8052,3.7962,3.8046,3.8049,3.8036,3.8213,3.8239,3.8375,3.8155,3.8158,3.8161,0,3.7538,3.759,3.7724,3.7766,3.7794,3.7855,3.7915,3.797,3.8014,3.8021,3.8062,3.8049,3.8131,3.8068,3.8181,3.812,3.8154,3.8169,3.8174,3.8182,3.8112,3.8226,3.8418,3.8439,3.819,3.8188,3.8186,0,3.7653,3.7756,3.785,3.7876,3.7927,3.7971,3.7995,3.8035,3.8074,3.8126,3.8152,3.8213,3.8247,3.8295,3.83,3.8254,3.8414,3.8352,3.8423,3.8423,3.8458,3.8455,3.8659,3.848,3.8479,3.8479,3.8478,0,3.7808,3.7891,3.7903,3.7961,3.8054,3.8052,3.8145,3.8164,3.8201,3.8263,3.8243,3.8302,3.8305,3.8365,3.837,3.8464,3.8479,3.8487,3.8487,3.8489,3.8488,3.8512,3.8503,3.8484,3.8483,3.8482,3.8481,0,3.7952,3.7963,3.8063,3.8104,3.8116,3.8183,3.8218,3.8274,3.8287,3.8365,3.8384,3.8404,3.8475,3.8484,3.8567,3.857,3.8683,3.8673,3.8668,3.8666,3.8737,3.8731,3.8963,3.8994,3.8794,3.8796,3.8798,0,3.805,3.8114,3.8161,3.8201,3.8227,3.8292,3.8332,3.8333,3.8376,3.8432,3.8481,3.855,3.8604,3.8719,3.8741,3.8804,3.8796,3.8873,3.8806,3.8806,3.8798,3.8795,3.8802,3.8887,3.8889,3.8891,3.8892,0,3.8224,3.8226,3.8284,3.8345,3.8393,3.8441,3.8486,3.852,3.8528,3.8577,3.8648,3.8691,3.8776,3.8844,3.8907,3.8932,3.8914,3.8913,3.8933,3.8936,3.893,3.8935,3.8704,3.8908,3.8906,3.8905,3.8904,3.8904,3.8348,3.8404,3.8447,3.8512,3.8547,3.859,3.8644,3.8664,3.8724,3.8792,3.879,3.8869,3.8913,3.8996,3.9026,3.9088,3.9063,3.9092,3.9099,3.9106,3.9114,3.892,3.91,3.9099,3.9099,3.9098,3.9098,0,3.8522,3.8548,3.8608,3.8672,3.8725,3.8702,3.8752,3.8797,3.8867,3.8909,3.8964,3.9047,3.9114,3.9142,3.9208,3.9253,3.9247,3.9271,3.9267,3.9274,3.9132,3.9108,3.9275,3.9275,3.9275,3.9275,3.9275,3.9275,3.8618,3.8711,3.8719,3.883,3.8856,3.8933,3.8963,3.9003,3.9037,3.9131,3.9187,3.9204,3.9242,3.931,3.9371,3.9378,3.9403,3.9431,3.9434,3.9301,3.9284,3.9266,3.9244,3.9437,3.9437,3.9571,3.9572,3.9573]},{"header":{"parameterUnit":"m.s-1","parameterCategory":1,"la1":30.2991,"la2":30.254,"lo1":-89.0895,"lo2":-89.0444,"dy":0.0017,"dx":0.0017,"nx":28,"ny":28,"refTime":"2025-03-05T03:00:00:Z","depth":0,"parameterNumber":3,"parameterNumberName":"V-component_of_WINDS"},"data":[0,0,0,0,0,0,0,0,0,0,0,0,0,0,0,0,0,0,0,0,0,0,0,0,0,0,0,0,0,0,0,0,0,0,0,0,0,0,0,0,0,0,0,0,0,0,0,0,0,0,0,0,0,0,0,0,0,0,-4.979,-4.9793,0,-5.002,-5.0022,-5.0025,-5.0007,-5.0004,-5.0,-4.9997,-5.0236,-5.0245,-5.0254,0,0,0,0,0,0,0,0,0,0,0,0,0,-4.934,-4.9348,-4.979,-4.9793,-4.9796,-5.0019,-5.0023,-5.0026,-5.0008,-5.0004,-5.0,-4.9996,-5.0232,-5.0244,-5.0255,0,0,0,0,0,0,0,0,0,0,0,0,0,-4.9549,-4.9351,-4.979,-4.9814,-4.9818,-5.0019,-5.0023,-5.0027,-5.0009,-5.0004,-4.9998,-4.9994,-5.0229,-5.0243,-5.0257,-5.0449,0,0,-5.0301,-5.0307,0,0,0,0,0,0,0,0,-4.9537,-4.9566,-4.9807,-4.9812,-4.9818,-4.998,-4.9951,-5.0168,-5.001,-4.9937,-4.9997,-4.9991,-5.0155,-5.0175,-5.0229,-5.046,-5.047,-5.0302,-5.0311,-5.0317,-5.0321,0,0,0,0,0,0,0,-4.9523,-4.9556,-4.9881,-4.9811,-4.9817,-4.9815,-4.9838,-4.9992,-5.0072,-4.9943,-4.9942,-4.9969,-5.0157,-5.0216,-5.0235,-5.0474,-5.0302,-5.0314,-5.0323,-5.0329,-5.0876,-5.0882,0,0,0,0,0,0,-4.9502,-4.9544,-4.9874,-4.9888,-4.9662,-4.9827,-4.9854,-4.9933,-5.007,-5.0086,-4.9973,-4.9967,-5.0194,-5.0218,-5.0243,-5.0479,-5.0317,-5.033,-5.0338,-5.087,-5.0878,-5.0884,0,0,0,0,0,0,-4.9493,-4.9532,-4.9864,-4.9716,-4.9758,-4.984,-4.9929,-4.994,-4.9999,-5.0093,-5.0108,-5.0019,-5.0191,-5.0223,-5.0398,-5.0487,-5.0337,-5.035,-5.0863,-5.0873,-5.0881,-5.0951,0,0,0,0,0,0,-4.948,-4.9529,-4.9602,-4.9718,-4.9766,-5.0015,-4.9935,-4.9948,-5.0024,-5.0018,-5.014,-5.0155,-5.0189,-5.0377,-5.0413,-5.0504,-5.0361,-5.0856,-5.0867,-5.0878,-5.0942,-5.0962,-5.0979,0,0,0,0,0,-4.9464,-4.9613,-4.9605,-4.9645,-4.9859,-5.002,-5.0048,-5.0083,-5.0031,-5.0106,-5.0166,-5.0151,-5.0471,-5.0395,-5.0435,-5.0532,-5.085,-5.0864,-5.0877,-5.0933,-5.0958,-5.0978,0,0,0,0,0,0,-4.9506,-4.9628,-4.9622,-4.9812,-4.9906,-5.0016,-5.0112,-5.0107,-5.0218,-5.0209,-5.0248,-5.0276,-5.0453,-5.051,-5.0423,-5.0727,-5.0654,-5.0676,-5.0683,-5.0707,-5.0725,-5.0709,-5.0373,0,0,0,0,0,-4.9537,-4.9657,-4.9757,-4.9916,-4.9963,-5.0029,-5.0101,-5.012,-5.0219,-5.0259,-5.0332,-5.043,-5.0553,-5.0633,-5.0751,-5.0949,-5.0977,-5.1036,-5.1054,-5.1069,-5.1088,-5.12,-5.1228,-5.0928,-5.0928,-5.0927,0,0,-4.9603,-4.9685,-4.9758,-4.9926,-5.0001,-5.0126,-5.0063,-5.0197,-5.029,-5.0279,-5.045,-5.0507,-5.0619,-5.0807,-5.0893,-5.086,-5.1177,-5.1086,-5.1097,-5.1109,-5.1216,-5.1245,-5.127,-5.0937,-5.0935,-5.0934,0,0,-4.9788,-4.9861,-5.0002,-5.0078,-5.0191,-5.0235,-5.0268,-5.0381,-5.0418,-5.0589,-5.0584,-5.0696,-5.0906,-5.0987,-5.1055,-5.1271,-5.1262,-5.1308,-5.1406,-5.1514,-5.1538,-5.1559,-5.1638,-5.1666,-5.1326,-5.1327,-5.1327,0,-4.9857,-5.0043,-5.0075,-5.0211,-5.0286,-5.028,-5.0424,-5.0497,-5.0644,-5.0696,-5.0656,-5.092,-5.0995,-5.1203,-5.1256,-5.131,-5.1352,-5.1295,-5.1531,-5.1553,-5.1573,-5.1649,-5.1679,-5.1332,-5.1331,-5.133,-5.133,0,-5.0122,-5.0251,-5.0352,-5.0493,-5.0579,-5.0718,-5.0773,-5.0856,-5.0868,-5.0916,-5.1091,-5.118,-5.1317,-5.1368,-5.138,-5.1578,-5.1554,-5.1522,-5.1451,-5.1606,-5.1679,-5.1708,-5.1339,-5.1337,-5.1335,-5.1334,0,0,-5.0341,-5.0498,-5.0535,-5.0599,-5.0725,-5.0826,-5.0965,-5.1098,-5.117,-5.1271,-5.1391,-5.1569,-5.1541,-5.1618,-5.164,-5.1734,-5.1902,-5.1691,-5.1695,-5.1729,-5.2129,-5.2153,-5.2186,-5.1896,-5.1902,-5.1906,-5.212,0,-5.054,-5.0786,-5.0819,-5.1038,-5.1159,-5.1156,-5.1277,-5.1368,-5.1417,-5.1528,-5.1581,-5.1708,-5.166,-5.1707,-5.18,-5.1862,-5.1983,-5.1847,-5.201,-5.2015,-5.1984,-5.2224,-5.225,-5.2447,-5.2148,-5.2153,-5.2156,0,-5.0805,-5.0913,-5.1144,-5.1253,-5.1305,-5.1414,-5.1539,-5.1645,-5.1748,-5.1777,-5.1864,-5.1874,-5.202,-5.1941,-5.2144,-5.205,-5.2119,-5.2159,-5.2168,-5.2186,-5.2097,-5.2251,-5.2511,-5.2542,-5.2201,-5.2197,-5.2194,0,-5.0944,-5.1148,-5.1312,-5.1367,-5.1499,-5.1576,-5.1634,-5.1732,-5.1811,-5.192,-5.1972,-5.2097,-5.2167,-5.2264,-5.2309,-5.2246,-5.251,-5.2434,-5.254,-5.2539,-5.2598,-5.2594,-5.2875,-5.2638,-5.2638,-5.2637,-5.2636,0,-5.1164,-5.1306,-5.1377,-5.1478,-5.1637,-5.1674,-5.1831,-5.1887,-5.1975,-5.2089,-5.2093,-5.22,-5.2251,-5.2366,-5.2402,-5.2566,-5.2596,-5.2625,-5.2634,-5.2627,-5.2623,-5.2674,-5.2662,-5.2645,-5.2643,-5.2642,-5.264,0,-5.1348,-5.14,-5.158,-5.1689,-5.172,-5.1833,-5.1928,-5.2027,-5.2074,-5.2218,-5.2254,-5.2329,-5.2465,-5.2518,-5.2684,-5.2708,-5.2898,-5.2894,-5.2863,-5.2866,-5.297,-5.2961,-5.3296,-5.3342,-5.3072,-5.3075,-5.3077,0,-5.1486,-5.1595,-5.1716,-5.1791,-5.1852,-5.1975,-5.2054,-5.2095,-5.2179,-5.2305,-5.239,-5.2525,-5.2635,-5.2853,-5.2923,-5.3051,-5.3052,-5.316,-5.3071,-5.3061,-5.3056,-5.305,-5.3062,-5.3177,-5.318,-5.3182,-5.3184,0,-5.1726,-5.1747,-5.186,-5.1985,-5.2079,-5.2179,-5.2276,-5.2339,-5.2395,-5.2488,-5.2627,-5.2712,-5.2882,-5.3017,-5.3148,-5.321,-5.3209,-5.3211,-5.3243,-5.3238,-5.3217,-5.3232,-5.2911,-5.3204,-5.3202,-5.3201,-5.3199,-5.3199,-5.1893,-5.199,-5.2091,-5.2218,-5.2295,-5.2386,-5.2485,-5.2545,-5.266,-5.2801,-5.2818,-5.2968,-5.307,-5.3246,-5.3313,-5.3432,-5.3403,-5.3449,-5.3461,-5.3472,-5.3481,-5.3196,-5.3455,-5.3455,-5.3455,-5.3454,-5.3454,0,-5.2135,-5.22,-5.2316,-5.2452,-5.2553,-5.2539,-5.2646,-5.2732,-5.2863,-5.2958,-5.3066,-5.3227,-5.3358,-5.3438,-5.357,-5.365,-5.3652,-5.3684,-5.3679,-5.3694,-5.3497,-5.3457,-5.368,-5.3679,-5.3679,-5.3679,-5.3679,-5.3679,-5.2273,-5.2438,-5.2471,-5.2674,-5.2738,-5.2883,-5.2946,-5.303,-5.3106,-5.3285,-5.3393,-5.3444,-5.3534,-5.3673,-5.3794,-5.3814,-5.3864,-5.3898,-5.3916,-5.3731,-5.3708,-5.3686,-5.3649,-5.3907,-5.3908,-5.4104,-5.4106,-5.4107]}]]